DW4134 Cazadero CA US current weather conditions

sailwx.info

Wind from 205

Air temperature 20.0° C
Dewpoint 15.6° C

Last reported at 2019-Aug-21 03:35 UTC.
Time now 2019-Aug-21 04:40 UTC

Location: N 38°31' W 123°03'.
View on Google Maps.

See reports from other nearby stations

  
Tides and Currents Weather Stations Pressure Air Temp Water Temp Dewpoint Dewpoint Depression Visibility Wind Speed Wind Dir Waves Ship Positions
date/time (UTC)wind fromknots sea level pressurealtimeterstation pressurevisibilityair tempwater tempwave heightnotes
2019-Aug-21 03:35 205 20.0
2019-Aug-21 03:05 205 20.6
2019-Aug-21 02:35 205 20.6
2019-Aug-21 02:05 204 21.1
2019-Aug-21 01:35 210 21.7
2019-Aug-21 01:05 226 22.2
2019-Aug-21 00:35 227 22.8
2019-Aug-21 00:05 226 23.3
2019-Aug-20 23:35 225 23.9
2019-Aug-20 23:05 219 25.0
2019-Aug-20 22:35 170 25.0
2019-Aug-20 22:05 171 25.0
2019-Aug-20 21:35 097 24.4
2019-Aug-20 21:05 098 23.9
2019-Aug-20 20:35 006 22.2
2019-Aug-20 20:05 327 21.7
2019-Aug-20 19:35 307 20.6
2019-Aug-20 19:05 037 19.4
2019-Aug-20 18:35 033 17.8
2019-Aug-20 18:05 033 16.7
2019-Aug-20 17:35 214 15.6
2019-Aug-20 17:05 213 15.0
2019-Aug-20 16:35 214 13.9
2019-Aug-20 16:05 212 13.3
2019-Aug-20 15:35 214 13.3
2019-Aug-20 15:05 212 12.8
2019-Aug-20 14:35 212 12.8
2019-Aug-20 14:05 212 12.2
2019-Aug-20 13:35 214 12.2
2019-Aug-20 13:05 212 12.2
2019-Aug-20 12:35 212 12.2
2019-Aug-20 12:05 214 12.2
2019-Aug-20 11:35 213 12.2
2019-Aug-20 11:05 213 12.2
2019-Aug-20 10:35 214 12.8
2019-Aug-20 10:05 214 12.8
2019-Aug-20 09:35 214 12.8
2019-Aug-20 09:05 213 13.3
2019-Aug-20 08:35 214 13.3
2019-Aug-20 08:05 213 13.3
2019-Aug-20 07:35 214 13.9
2019-Aug-20 07:05 213 13.9
2019-Aug-20 06:35 214 13.9
2019-Aug-20 06:05 212 14.4
2019-Aug-20 05:35 213 14.4
2019-Aug-20 05:05 212 15.0
2019-Aug-20 04:35 214 15.0
2019-Aug-20 04:05 214 16.1
2019-Aug-20 03:35 213 16.7
2019-Aug-20 03:05 214 17.2
2019-Aug-20 02:35 214 17.8
2019-Aug-20 02:05 214 18.9
2019-Aug-20 01:35 214 20.0
2019-Aug-20 01:05 212 20.6
2019-Aug-20 00:35 214 21.1
2019-Aug-20 00:05 214 21.7
2019-Aug-19 23:35 214 22.2
2019-Aug-19 23:05 214 22.8
2019-Aug-19 22:35 211 23.9
2019-Aug-19 22:05 211 23.3
2019-Aug-19 21:35 214 22.8
2019-Aug-19 21:05 001 21.7
2019-Aug-19 20:35 001 20.6
2019-Aug-19 20:05 001 19.4
2019-Aug-19 19:35 033 18.3
2019-Aug-19 19:05 030 17.2
2019-Aug-19 18:35 027 16.7
2019-Aug-19 18:05 027 15.6
2019-Aug-19 17:35 030 15.0
2019-Aug-19 17:05 013 13.9
2019-Aug-19 16:35 338 13.3
2019-Aug-19 16:05 337 13.3
2019-Aug-19 15:35 356 12.8
2019-Aug-19 15:05 001 12.8
2019-Aug-19 14:35 001 12.8
2019-Aug-19 14:05 338 12.8
2019-Aug-19 13:35 337 12.8
2019-Aug-19 13:05 337 12.8
2019-Aug-19 12:35 336 12.8
2019-Aug-19 12:05 336 12.8
2019-Aug-19 11:35 336 12.8
2019-Aug-19 11:05 338 12.8
2019-Aug-19 10:35 337 12.8
2019-Aug-19 10:05 337 12.8
2019-Aug-19 09:35 207 12.8
2019-Aug-19 09:05 207 12.8
2019-Aug-19 08:35 207 13.3
2019-Aug-19 08:05 207 13.3
2019-Aug-19 07:35 207 13.3
2019-Aug-19 07:05 207 13.3
2019-Aug-19 06:35 207 13.3
2019-Aug-19 06:05 207 13.3
2019-Aug-19 05:35 207 13.3
2019-Aug-19 05:05 207 13.3
2019-Aug-19 04:35 207 13.3
2019-Aug-19 04:05 207 13.9